EZY324 EGPH-GCRR

Flight info

Callsign EZY324
Flight time N/A
Altitude 38000
Route GOSAM DCT TRN DCT NIMAT DCT DUB DCT SUTEX DCT ELTIG DCT TUVEN/M080F380 DCT LASNO T9 BEGAS/N0453F380 DCT DEMOS/N0455F370 DCT TAKAV/N0456F390 DCT VEDOD UN857 TERTO
Aircraft A20N/M-SDE2E3FGHIRWXY/LB1

Departure

Time 2026-04-23 14:21
Airport Edinburgh Airport (EGPH)

Arrival

Time N/A
Airport César Manrique-Lanzarote Airport (GCRR)
Time Latitude Longitude Altitude Speed Heading
2026-04-23 14:00 55.94839 -3.35805 101 ft 0 kts 209°
2026-04-23 14:12 55.94847 -3.35796 100 ft 2 kts 210°
2026-04-23 14:12 55.94862 -3.35781 101 ft 2 kts 213°
2026-04-23 14:12 55.94875 -3.35764 102 ft 2 kts 219°
2026-04-23 14:12 55.94886 -3.35743 103 ft 2 kts 240°
2026-04-23 14:13 55.94889 -3.35715 103 ft 2 kts 299°
2026-04-23 14:13 55.94887 -3.35707 103 ft 0 kts 299°
2026-04-23 14:14 55.94888 -3.35710 103 ft 2 kts 299°
2026-04-23 14:15 55.94906 -3.35768 105 ft 9 kts 300°
2026-04-23 14:15 55.94969 -3.35861 105 ft 16 kts
2026-04-23 14:15 55.95060 -3.35899 106 ft 14 kts 284°
2026-04-23 14:15 55.95114 -3.36096 104 ft 21 kts 292°
2026-04-23 14:16 55.95101 -3.36373 110 ft 26 kts 240°
2026-04-23 14:16 55.94997 -3.36692 111 ft 34 kts 239°
2026-04-23 14:16 55.94889 -3.37016 108 ft 28 kts 237°
2026-04-23 14:16 55.94780 -3.37334 111 ft 31 kts 239°
2026-04-23 14:17 55.94668 -3.37676 115 ft 33 kts 240°
2026-04-23 14:17 55.94541 -3.38037 115 ft 36 kts 239°
2026-04-23 14:17 55.94405 -3.38433 115 ft 38 kts 240°
2026-04-23 14:17 55.94301 -3.38745 118 ft 23 kts 240°
2026-04-23 14:18 55.94310 -3.38890 121 ft 11 kts 322°
2026-04-23 14:18 55.94326 -3.38908 122 ft 0 kts 328°
2026-04-23 14:18 55.94331 -3.38913 122 ft 5 kts 328°
2026-04-23 14:19 55.94406 -3.38993 118 ft 9 kts 335°
2026-04-23 14:19 55.94421 -3.38976 118 ft 3 kts 78°
2026-04-23 14:19 55.94434 -3.38917 122 ft 3 kts 60°
2026-04-23 14:19 55.94434 -3.38916 122 ft 1 kts 58°
2026-04-23 14:20 55.94435 -3.38915 122 ft 0 kts 58°
2026-04-23 14:20 55.94484 -3.38770 116 ft 45 kts 59°
2026-04-23 14:20 55.94765 -3.37937 121 ft 107 kts 59°
2026-04-23 14:21 55.95239 -3.36548 172 ft 148 kts 59°
2026-04-23 14:21 55.95778 -3.34975 657 ft 153 kts 59°
2026-04-23 14:21 55.96376 -3.33389 1311 ft 155 kts 45°
2026-04-23 14:21 55.97273 -3.32293 1898 ft 159 kts 35°
2026-04-23 14:22 55.98234 -3.31097 2273 ft 179 kts 38°
2026-04-23 14:22 55.99260 -3.29622 2589 ft 199 kts 42°
2026-04-23 14:22 56.00460 -3.28163 2955 ft 221 kts 19°
2026-04-23 14:22 56.02053 -3.27956 3313 ft 243 kts 346°
2026-04-23 14:23 56.03604 -3.29350 3759 ft 261 kts 316°
2026-04-23 14:23 56.04617 -3.32019 4440 ft 265 kts 287°
2026-04-23 14:23 56.04826 -3.35246 5363 ft 262 kts 259°
2026-04-23 14:23 56.04347 -3.38401 6221 ft 265 kts 251°
2026-04-23 14:24 56.03780 -3.41572 7125 ft 267 kts 251°
2026-04-23 14:24 56.03207 -3.44772 7949 ft 271 kts 250°
2026-04-23 14:24 56.02635 -3.48005 8771 ft 275 kts 251°
2026-04-23 14:24 56.02068 -3.51259 9570 ft 278 kts 251°
2026-04-23 14:25 56.01502 -3.54536 10352 ft 282 kts 251°
2026-04-23 14:25 56.01106 -3.56829 10810 ft 287 kts 251°